{"data":{"norad_id":42841,"epoch":"2026-05-24T22:25:01.386048Z","epoch_age_seconds":77175,"freshness":"FRESH","line1":"1 42841U 17042S   26144.93404382  .00017227  00000+0  54598-3 0  9995","line2":"2 42841  97.3995 329.9468 0004976  75.1495 285.0298 15.32771177484877","mean_motion":15.32771177,"eccentricity":0.0004976,"inclination_deg":97.3995,"raan_deg":329.9468,"arg_perigee_deg":75.1495,"mean_anomaly_deg":285.0298,"bstar":0.00054598,"rev_number":48487,"period_min":93.947486853088,"perigee_km":464.14231884703,"apogee_km":470.95514528758,"semimajor_km":6845.6857320673,"source":"CELESTRAK","updated_at":"2026-05-25T13:38:13.530558Z"}}